sat.trackr.live / text

‹ back to catalog

STARLINK-30466

NORAD 57904 · 2023-146P

PAYLOAD ACTIVE UNKNOWN

§ Identity

Operator
Country
US
Launch date
2023-09-20
Launch site
AFETR
Launch vehicle
Mass (kg)
RCS (m²)

Purposes: comms

External: N2YO · Heavens-Above · Gunter

§ Orbital elements

Epoch: 2026-05-24T23:57:24.378048Z

Period
94.27 min
Inclination
43.0055°
Eccentricity
0.0002390
Mean motion
15.27579769 rev/d
Perigee alt
481.4 km
Apogee alt
484.7 km
Semi-major
6,861.2 km
B*
3.8278e-5
RAAN
243.5132°
Arg perigee
268.2455°
Mean anomaly
91.8123°
Rev number
14,766

§ Raw data

STARLINK-304661 57904U 23146P   26144.99819882  .00000791  00000+0  38278-4 0  99902 57904  43.0055 243.5132 0002390 268.2455  91.8123 15.27579769147666

JSON: /api/v1/satellites/57904 · /tle

For live sub-satellite position, see the globe view (requires WebGL).

§ Visibility from observer

Set your observer location to see the next 7 days of passes ≥ 10°. The values pass through the URL so the page stays shareable.

No JS? Fill the form by hand. The geolocation button needs JavaScript.